[[{"header":{"parameterUnit":"m.s-1","parameterCategory":2,"la1":30.2992,"la2":30.254,"lo1":-89.0895,"lo2":-89.0443,"dy":0.0025,"dx":0.0025,"nx":19,"ny":19,"refTime":"2026-03-16T03:00:00:Z","depth":"0","parameterNumber":2,"parameterNumberName":"U-component_of_CURRENTS"},"data":[0,0,0,0.1164,0.1165,0.1225,0.1226,0.1266,0.1266,0,0,0,0,0,0,0,0,0,0,0,0.1141,0.1142,0.1164,0.1165,0.1225,0.1226,0.1266,0.1266,0,0,0,0,0,0,0,0,0,0,0,0.1141,0.1142,0.1142,0.1166,0.1225,0.1226,0.1266,0.1229,0,0,0,0,0,0,0,0,0,0,0.1174,0.1158,0.1142,0.1142,0.1166,0.1225,0.1226,0.1227,0.1231,0.123,0,0.1244,0,0.1258,0.1269,0.1269,0,0,0,0.1161,0.1155,0.1175,0.1142,0.1167,0.1225,0.1197,0.123,0.1234,0.1235,0.1244,0.1246,0.1259,0.1269,0.1269,0.1307,0.1307,0,0,0.1158,0.1148,0.1172,0.1178,0.1188,0.1195,0.1199,0.1233,0.1236,0.1245,0.1248,0.126,0.1269,0.1269,0.1307,0.1307,0,0,0,0.1151,0.1145,0.1165,0.1176,0.1191,0.1197,0.1201,0.1235,0.1242,0.1248,0.126,0.1269,0.127,0.1306,0.1307,0.1356,0,0,0,0.1149,0.1142,0.1163,0.1157,0.1191,0.1218,0.1203,0.124,0.1245,0.126,0.1269,0.127,0.1306,0.1307,0.1355,0.1409,0,0,0,0.1138,0.1141,0.115,0.1156,0.1185,0.1218,0.1228,0.1241,0.1252,0.1269,0.127,0.1306,0.1306,0.1353,0.1405,0.1558,0,0,0,0.1121,0.1148,0.115,0.1185,0.1185,0.1236,0.1228,0.1261,0.1278,0.127,0.1306,0.1307,0.1353,0.1402,0.1554,0.1711,0.1744,0,0,0.1148,0.1151,0.1173,0.1177,0.1228,0.1227,0.1274,0.1288,0.128,0.1291,0.1293,0.1355,0.1405,0.1557,0.1732,0.1766,0,0,0,0.1177,0.1192,0.121,0.1238,0.1268,0.1298,0.1307,0.1313,0.1332,0.1293,0.1349,0.1379,0.1475,0.1558,0.1584,0.1675,0.1308,0.1308,0.1308,0.1193,0.1214,0.125,0.1279,0.1308,0.1345,0.138,0.1386,0.1361,0.1373,0.1413,0.1556,0.164,0.1663,0.1752,0.1389,0.1389,0.1389,0.1389,0.1225,0.1242,0.1269,0.1308,0.1341,0.1374,0.1433,0.144,0.154,0.1454,0.1545,0.1597,0.1696,0.178,0.1392,0.1392,0.1391,0.1391,0.1391,0.1224,0.1234,0.1258,0.13,0.1348,0.1392,0.1508,0.1555,0.1609,0.1685,0.1853,0.1854,0.1944,0.1758,0.1759,0.176,0.1761,0.1762,0.1762,0.1203,0.1229,0.125,0.1293,0.1322,0.1414,0.1568,0.1695,0.1908,0.1959,0.1961,0.2015,0.1671,0.1674,0.1776,0.1774,0.1772,0.1771,0.177,0.1199,0.1203,0.1238,0.1264,0.1351,0.1471,0.1632,0.1997,0.2163,0.2325,0.2403,0.2129,0.2158,0.2136,0.2152,0.2372,0.2372,0.2372,0.2372,0.1185,0.1191,0.124,0.1286,0.1376,0.1504,0.1805,0.2108,0.2496,0.2668,0.2698,0.262,0.2591,0.2638,0.2605,0.2627,0.2962,0.2963,0.2964,0.1181,0.1199,0.1234,0.1288,0.1383,0.1563,0.1837,0.2156,0.271,0.2988,0.2801,0.2776,0.2648,0.2596,0.2646,0.2593,0.2618,0,0]},{"header":{"parameterUnit":"m.s-1","parameterCategory":2,"la1":30.2992,"la2":30.254,"lo1":-89.0895,"lo2":-89.0443,"dy":0.0025,"dx":0.0025,"nx":19,"ny":19,"refTime":"2026-03-16T03:00:00:Z","depth":"0","parameterNumber":3,"parameterNumberName":"V-component_of_CURRENTS"},"data":[0,0,0,0.0003,0.0002,-0.0067,-0.0067,-0.0159,-0.0159,0,0,0,0,0,0,0,0,0,0,0,0.0027,0.0027,0.0003,0.0001,-0.0067,-0.0067,-0.0159,-0.0159,0,0,0,0,0,0,0,0,0,0,0,0.0028,0.0027,0.0027,0.0001,-0.0067,-0.0067,-0.0158,-0.0108,0,0,0,0,0,0,0,0,0,0,-0.0042,-0.0015,0.0027,0.0027,0.0001,-0.0067,-0.0068,-0.0105,-0.0111,-0.0126,0,-0.0132,0,-0.0145,-0.0165,-0.0165,0,0,0,-0.0007,-0.001,-0.0028,0.0027,0.0,-0.0067,-0.0039,-0.0109,-0.0115,-0.0133,-0.0133,-0.0136,-0.0146,-0.0165,-0.0166,-0.02,-0.02,0,0,-0.0003,0.0012,-0.0023,-0.0031,-0.0011,-0.0036,-0.004,-0.0112,-0.0117,-0.0133,-0.0139,-0.0148,-0.0166,-0.0167,-0.0201,-0.02,0,0,0,0.0013,0.0014,-0.0002,-0.0028,-0.0038,-0.0038,-0.0043,-0.0114,-0.0119,-0.014,-0.0149,-0.0166,-0.0167,-0.0201,-0.02,-0.0142,0,0,0,0.0015,0.0024,-0.0,0.0007,-0.0037,-0.0076,-0.0042,-0.0114,-0.0122,-0.0148,-0.0166,-0.0168,-0.0201,-0.0201,-0.0144,-0.007,0,0,0,0.0029,0.0026,0.002,0.0008,-0.0018,-0.0075,-0.0085,-0.0116,-0.0128,-0.0165,-0.0168,-0.0201,-0.0201,-0.0146,-0.0075,0.004,0,0,0,0.0043,0.0044,0.0021,0.0016,-0.0017,-0.0046,-0.0085,-0.0118,-0.0148,-0.0167,-0.0201,-0.0201,-0.0146,-0.0078,0.0036,0.0162,0.0193,0,0,0.0055,0.0046,0.0043,0.0021,0.001,-0.0038,-0.0048,-0.0105,-0.0143,-0.018,-0.0181,-0.0143,-0.0075,0.0039,0.0193,0.0224,0,0,0,0.0054,0.0057,0.0047,0.0035,0.0002,-0.0006,-0.0069,-0.0089,-0.0122,-0.0157,-0.0149,-0.0107,-0.0036,0.0029,0.0053,-0.0051,-0.0198,-0.0198,-0.0198,0.0097,0.008,0.0086,0.0066,0.0048,0.0008,0.0005,-0.0031,-0.0096,-0.0096,-0.0065,0.0059,0.0125,0.0146,0.0034,-0.0098,-0.0098,-0.0098,-0.0098,0.014,0.0151,0.0133,0.0133,0.0117,0.0104,0.0078,0.0047,0.0079,-0.0012,0.0053,0.008,0.0176,0.0047,-0.0094,-0.0094,-0.0095,-0.0095,-0.0096,0.018,0.0187,0.0182,0.0196,0.0209,0.018,0.0278,0.0229,0.0176,0.022,0.0328,0.0327,0.0227,0.0259,0.026,0.026,0.0261,0.0262,0.0262,0.0229,0.0228,0.0262,0.0266,0.0291,0.0363,0.0403,0.0466,0.0501,0.045,0.0451,0.0266,0.017,0.017,0.0275,0.0273,0.0271,0.027,0.0269,0.0295,0.029,0.0354,0.0386,0.048,0.0665,0.0677,0.085,0.0865,0.0923,0.059,0.0578,0.0596,0.0576,0.0587,0.0794,0.0794,0.0794,0.0794,0.0349,0.0346,0.0466,0.0557,0.0693,0.0818,0.1139,0.1213,0.1033,0.0891,0.0741,0.0632,0.0616,0.0624,0.0604,0.061,0.0818,0.0818,0.0818,0.0413,0.044,0.0557,0.0642,0.0793,0.1048,0.1391,0.1551,0.1165,0.0799,0.0572,0.0572,0.038,0.0362,0.0343,0.0322,0.0321,0,0]}],[{"header":{"parameterUnit":"m.s-1","parameterCategory":2,"la1":30.2992,"la2":30.254,"lo1":-89.0895,"lo2":-89.0443,"dy":0.0025,"dx":0.0025,"nx":19,"ny":19,"refTime":"2026-03-16T03:00:00:Z","depth":"2","parameterNumber":2,"parameterNumberName":"U-component_of_CURRENTS"},"data":[0,0,0,0.1042,0.1043,0.1112,0.1112,0.1158,0.1159,0,0,0,0,0,0,0,0,0,0,0,0.1016,0.1017,0.1042,0.1043,0.1112,0.1112,0.1158,0.1159,0,0,0,0,0,0,0,0,0,0,0,0.1016,0.1017,0.1017,0.1044,0.1112,0.1112,0.1158,0.1116,0,0,0,0,0,0,0,0,0,0,0.1054,0.1036,0.1017,0.1017,0.1044,0.1112,0.1112,0.1114,0.1118,0.1117,0,0.1132,0,0.1149,0.1161,0.1161,0,0,0,0.1039,0.1033,0.1054,0.1018,0.1045,0.1112,0.108,0.1117,0.1122,0.1122,0.1133,0.1135,0.1149,0.1161,0.1161,0.12,0.12,0,0,0.1036,0.1024,0.1051,0.1057,0.1069,0.1078,0.1082,0.112,0.1125,0.1133,0.1136,0.115,0.1162,0.1162,0.12,0.12,0,0,0,0.1027,0.1022,0.1043,0.1055,0.1072,0.108,0.1085,0.1123,0.1131,0.1137,0.1151,0.1162,0.1162,0.12,0.12,0.1249,0,0,0,0.1025,0.1018,0.1041,0.1035,0.1072,0.1104,0.1087,0.1128,0.1134,0.115,0.1162,0.1163,0.12,0.12,0.1247,0.1301,0,0,0,0.1012,0.1016,0.1026,0.1034,0.1066,0.1104,0.1115,0.113,0.1142,0.1161,0.1163,0.1199,0.12,0.1246,0.1297,0.1443,0,0,0,0.0994,0.1022,0.1026,0.1063,0.1066,0.1119,0.1115,0.1151,0.117,0.1162,0.12,0.12,0.1245,0.1295,0.1438,0.1543,0.1572,0,0,0.102,0.1024,0.1047,0.1053,0.1106,0.1109,0.1157,0.1177,0.1172,0.1183,0.1184,0.1248,0.1297,0.1442,0.1562,0.1591,0,0,0,0.105,0.1065,0.1083,0.1114,0.1146,0.1178,0.1193,0.12,0.1222,0.1186,0.1241,0.1271,0.1361,0.1414,0.1436,0.1201,0.1201,0.1201,0.1201,0.1062,0.1085,0.1121,0.1152,0.1183,0.1224,0.1258,0.1267,0.1248,0.1261,0.1304,0.1439,0.1491,0.151,0.1279,0.1279,0.1279,0.1279,0.1279,0.1092,0.1107,0.1138,0.1179,0.1213,0.125,0.1309,0.1318,0.1421,0.1341,0.1427,0.1452,0.1538,0.1283,0.1282,0.1282,0.1281,0.1281,0.1281,0.1088,0.1095,0.1125,0.1171,0.1222,0.127,0.1382,0.1432,0.1488,0.1563,0.1695,0.1695,0.1531,0.1635,0.1636,0.1637,0.1637,0.1638,0.1638,0.1059,0.1089,0.1114,0.1164,0.1197,0.1292,0.1445,0.1563,0.1752,0.1794,0.1796,0.1562,0.155,0.1554,0.1652,0.1649,0.1648,0.1646,0.1645,0.1045,0.1057,0.1097,0.1129,0.1224,0.1338,0.1497,0.1818,0.1974,0.2109,0.1947,0.1935,0.1958,0.1939,0.1953,0.2149,0.2149,0.2149,0.2149,0.1026,0.1035,0.1094,0.1147,0.1241,0.1364,0.1617,0.1835,0.2056,0.2106,0.2106,0.1987,0.1971,0.1985,0.1964,0.1974,0.2176,0.2176,0.2175,0.1014,0.1039,0.1078,0.1144,0.1243,0.141,0.1614,0.1772,0.2,0.2162,0.1961,0.218,0.2002,0.1977,0.199,0.1961,0.1973,0,0]},{"header":{"parameterUnit":"m.s-1","parameterCategory":2,"la1":30.2992,"la2":30.254,"lo1":-89.0895,"lo2":-89.0443,"dy":0.0025,"dx":0.0025,"nx":19,"ny":19,"refTime":"2026-03-16T03:00:00:Z","depth":"2","parameterNumber":3,"parameterNumberName":"V-component_of_CURRENTS"},"data":[0,0,0,-0.0085,-0.0086,-0.0146,-0.0147,-0.0232,-0.0232,0,0,0,0,0,0,0,0,0,0,0,-0.0063,-0.0064,-0.0085,-0.0086,-0.0146,-0.0147,-0.0232,-0.0232,0,0,0,0,0,0,0,0,0,0,0,-0.0063,-0.0064,-0.0064,-0.0086,-0.0146,-0.0147,-0.0231,-0.0186,0,0,0,0,0,0,0,0,0,0,-0.0127,-0.0103,-0.0064,-0.0064,-0.0087,-0.0146,-0.0147,-0.0184,-0.0189,-0.0204,0,-0.0208,0,-0.022,-0.0237,-0.0238,0,0,0,-0.0094,-0.0098,-0.0114,-0.0064,-0.0087,-0.0146,-0.0122,-0.0187,-0.0192,-0.0211,-0.0209,-0.0213,-0.0221,-0.0238,-0.0238,-0.0268,-0.0268,0,0,-0.0091,-0.0078,-0.011,-0.0117,-0.0096,-0.012,-0.0123,-0.019,-0.0194,-0.021,-0.0215,-0.0222,-0.0238,-0.0239,-0.0269,-0.0268,0,0,0,-0.0076,-0.0076,-0.009,-0.0114,-0.0123,-0.0121,-0.0125,-0.0191,-0.0195,-0.0216,-0.0223,-0.0239,-0.024,-0.0269,-0.0269,-0.0214,0,0,0,-0.0074,-0.0066,-0.0088,-0.0081,-0.0121,-0.0156,-0.0125,-0.0191,-0.0198,-0.0223,-0.0239,-0.0241,-0.0269,-0.0269,-0.0216,-0.0154,0,0,0,-0.0062,-0.0065,-0.007,-0.008,-0.0103,-0.0155,-0.0164,-0.0193,-0.0203,-0.0238,-0.0241,-0.0269,-0.0269,-0.0218,-0.0159,-0.0065,0,0,0,-0.005,-0.0047,-0.0069,-0.0071,-0.0102,-0.0127,-0.0164,-0.0193,-0.022,-0.0239,-0.0269,-0.0269,-0.0218,-0.0161,-0.0069,-0.0006,0.0017,0,0,-0.0037,-0.0045,-0.0046,-0.0067,-0.0074,-0.012,-0.0128,-0.0181,-0.0216,-0.025,-0.0251,-0.0215,-0.0159,-0.0066,0.0027,0.005,0,0,0,-0.0036,-0.0031,-0.004,-0.005,-0.0079,-0.0088,-0.0145,-0.0165,-0.0195,-0.0228,-0.0219,-0.0184,-0.0127,-0.0098,-0.0081,-0.0266,-0.0266,-0.0266,-0.0266,0.0006,-0.0009,-0.0001,-0.0019,-0.0035,-0.0073,-0.0079,-0.0112,-0.017,-0.0169,-0.0144,-0.0038,-0.001,0.0005,-0.017,-0.017,-0.0169,-0.0169,-0.0169,0.0047,0.0057,0.0042,0.0045,0.0028,0.0017,-0.0012,-0.0041,-0.0019,-0.0095,-0.0043,-0.0048,0.0028,-0.0165,-0.0166,-0.0166,-0.0167,-0.0167,-0.0167,0.0083,0.009,0.0088,0.0103,0.0114,0.0087,0.0166,0.0118,0.0066,0.0101,0.016,0.0159,0.0036,0.0133,0.0134,0.0135,0.0135,0.0136,0.0136,0.0124,0.0126,0.0159,0.0167,0.019,0.025,0.0276,0.0317,0.0319,0.0263,0.0263,0.0065,0.0056,0.0054,0.0147,0.0145,0.0144,0.0143,0.0142,0.0175,0.0175,0.0236,0.0266,0.0351,0.05,0.0505,0.0609,0.0608,0.0631,0.0358,0.0349,0.0356,0.0341,0.0346,0.051,0.051,0.051,0.051,0.0216,0.0217,0.0326,0.0408,0.0527,0.0625,0.0855,0.0848,0.0722,0.0585,0.0581,0.0494,0.0479,0.0486,0.0467,0.0472,0.0669,0.0669,0.0669,0.0263,0.0292,0.0393,0.0475,0.0607,0.0808,0.1036,0.1064,0.0813,0.0671,0.0561,0.053,0.0386,0.0368,0.036,0.0337,0.0338,0,0]}],[{"header":{"parameterUnit":"m.s-1","parameterCategory":2,"la1":30.2992,"la2":30.254,"lo1":-89.0895,"lo2":-89.0443,"dy":0.0025,"dx":0.0025,"nx":19,"ny":19,"refTime":"2026-03-16T03:00:00:Z","depth":"4","parameterNumber":2,"parameterNumberName":"U-component_of_CURRENTS"},"data":[0,0,0,0.0591,0.0592,0.068,0.0681,0.0778,0.0778,0,0,0,0,0,0,0,0,0,0,0,0.0565,0.0565,0.0591,0.0592,0.068,0.0681,0.0778,0.0778,0,0,0,0,0,0,0,0,0,0,0,0.0564,0.0565,0.0565,0.0593,0.068,0.0681,0.0777,0.0718,0,0,0,0,0,0,0,0,0,0,0.0636,0.0609,0.0565,0.0565,0.0593,0.068,0.0681,0.0716,0.0722,0.0729,0,0.0738,0,0.0752,0.0783,0.0783,0,0,0,0.0607,0.0604,0.0624,0.0566,0.0594,0.068,0.0645,0.072,0.0726,0.0737,0.074,0.0743,0.0754,0.0784,0.0784,0.0867,0.0867,0,0,0.0602,0.0586,0.0619,0.0628,0.0611,0.0642,0.0647,0.0724,0.073,0.074,0.0746,0.0755,0.0784,0.0785,0.0866,0.0867,0,0,0,0.0578,0.0583,0.0602,0.0624,0.0637,0.0644,0.065,0.0727,0.0733,0.0747,0.0757,0.0784,0.0785,0.0866,0.0867,0.0912,0,0,0,0.0576,0.0568,0.06,0.0592,0.0635,0.0685,0.0652,0.0728,0.0737,0.0756,0.0785,0.0786,0.0866,0.0866,0.0909,0.0923,0,0,0,0.0562,0.0567,0.0574,0.0591,0.0622,0.0684,0.0695,0.073,0.0742,0.0783,0.0786,0.0865,0.0866,0.0908,0.092,0.103,0,0,0,0.0547,0.0544,0.0574,0.0581,0.0621,0.0667,0.0695,0.074,0.0775,0.0785,0.0866,0.0867,0.0907,0.0918,0.1026,0.0912,0,0,0,0.053,0.0542,0.0547,0.0575,0.0609,0.0656,0.0719,0.0777,0.0792,0.0841,0.0843,0.091,0.092,0.1029,0.0963,0,0,0,0,0.0533,0.0537,0.055,0.0585,0.0627,0.0704,0.0761,0.0795,0.0867,0.0814,0.0915,0.092,0.0988,0.0911,0.0871,0.0871,0.0871,0.087,0.087,0.0492,0.0527,0.0553,0.061,0.0653,0.0746,0.081,0.0873,0.0883,0.0925,0.0961,0.1076,0.0993,0.0968,0.0968,0.0969,0.0969,0.0969,0.0969,0.0485,0.0504,0.0574,0.062,0.071,0.0785,0.0888,0.0927,0.1047,0.1007,0.1072,0.0965,0.0974,0.0973,0.0972,0.0971,0.0971,0.0971,0.0971,0.0461,0.0478,0.0535,0.0628,0.0728,0.0827,0.0948,0.1018,0.1092,0.1149,0.1132,0.1133,0.1129,0.1218,0.1218,0.1219,0.1219,0.122,0.122,0.0422,0.0474,0.0533,0.0629,0.0704,0.0822,0.0994,0.1082,0.1172,0.1177,0.1194,0.1161,0.1153,0.1145,0.1229,0.1227,0.1226,0.1225,0.1225,0.0388,0.0421,0.0488,0.0561,0.0723,0.0797,0.0967,0.1133,0.1242,0.128,0.1211,0.1209,0.1197,0.1189,0.1181,0.1279,0.1278,0.1277,0,0.0357,0.0377,0.0465,0.056,0.0674,0.0786,0.0926,0.1052,0.1158,0.1129,0.122,0.1134,0.1134,0.1109,0.11,0.1084,0,0,0,0.0345,0.0365,0.0412,0.0516,0.0652,0.0813,0.0961,0.1013,0.1123,0.1201,0.125,0.1257,0.1192,0.1254,0.1233,0.1223,0.1211,0,0]},{"header":{"parameterUnit":"m.s-1","parameterCategory":2,"la1":30.2992,"la2":30.254,"lo1":-89.0895,"lo2":-89.0443,"dy":0.0025,"dx":0.0025,"nx":19,"ny":19,"refTime":"2026-03-16T03:00:00:Z","depth":"4","parameterNumber":3,"parameterNumberName":"V-component_of_CURRENTS"},"data":[0,0,0,-0.0061,-0.0062,-0.009,-0.009,-0.0136,-0.0136,0,0,0,0,0,0,0,0,0,0,0,-0.0056,-0.0056,-0.0061,-0.0062,-0.009,-0.009,-0.0136,-0.0136,0,0,0,0,0,0,0,0,0,0,0,-0.0056,-0.0056,-0.0056,-0.0062,-0.009,-0.009,-0.0136,-0.0114,0,0,0,0,0,0,0,0,0,0,-0.0086,-0.008,-0.0056,-0.0056,-0.0062,-0.009,-0.009,-0.0113,-0.0115,-0.0123,0,-0.0124,0,-0.0125,-0.0138,-0.0139,0,0,0,-0.0071,-0.0078,-0.008,-0.0056,-0.0062,-0.009,-0.008,-0.0114,-0.0117,-0.0126,-0.0125,-0.0127,-0.0126,-0.0139,-0.0139,-0.0147,-0.0147,0,0,-0.0069,-0.0068,-0.0078,-0.0081,-0.0066,-0.0079,-0.0081,-0.0116,-0.0121,-0.0125,-0.0128,-0.0127,-0.0139,-0.0139,-0.0147,-0.0147,0,0,0,-0.0059,-0.0067,-0.0068,-0.008,-0.0081,-0.0079,-0.0082,-0.012,-0.0118,-0.0128,-0.0128,-0.0139,-0.014,-0.0147,-0.0147,-0.013,0,0,0,-0.0058,-0.006,-0.0068,-0.0068,-0.008,-0.01,-0.0085,-0.0116,-0.012,-0.0127,-0.0139,-0.014,-0.0147,-0.0147,-0.013,-0.012,0,0,0,-0.0055,-0.006,-0.0061,-0.0068,-0.0075,-0.0099,-0.0101,-0.0117,-0.0119,-0.0139,-0.014,-0.0148,-0.0147,-0.0131,-0.0122,-0.0137,0,0,0,-0.0057,-0.0035,-0.0061,-0.0037,-0.0075,-0.0064,-0.0101,-0.0111,-0.0125,-0.0139,-0.0147,-0.0147,-0.0132,-0.0122,-0.0138,-0.0051,0,0,0,-0.0023,-0.0032,-0.0014,-0.0037,-0.0017,-0.0061,-0.0056,-0.0099,-0.0121,-0.0139,-0.0139,-0.013,-0.0122,-0.0137,-0.0026,0,0,0,0,0.0002,0.0007,0.0013,0.001,0.0007,-0.002,-0.006,-0.0082,-0.0114,-0.0125,-0.0126,-0.0121,-0.0132,-0.0082,-0.0145,-0.0145,-0.0145,-0.0145,-0.0145,0.0019,0.0025,0.0045,0.0043,0.0039,-0.0001,-0.0025,-0.0066,-0.0087,-0.0101,-0.0104,-0.0099,-0.0043,-0.0103,-0.0103,-0.0102,-0.0102,-0.0102,-0.0102,0.0051,0.0057,0.0053,0.0072,0.0045,0.0033,-0.0009,-0.0039,-0.0076,-0.0086,-0.0098,-0.0062,-0.01,-0.0101,-0.0101,-0.0101,-0.0101,-0.0102,-0.0102,0.0042,0.0049,0.0057,0.007,0.0062,0.0042,0.0042,-0.0005,-0.0058,-0.0069,-0.0034,-0.0094,-0.01,-0.0081,-0.0081,-0.0081,-0.0081,-0.0081,-0.0081,0.0023,0.0038,0.0052,0.0069,0.0078,0.0081,0.0064,0.0045,-0.0016,-0.0003,-0.0068,-0.0092,-0.0093,-0.0099,-0.0082,-0.0082,-0.0082,-0.0082,-0.0082,0.001,0.0014,0.0042,0.0056,0.0101,0.0117,0.011,0.011,0.0084,0.0057,0.0023,0.0017,0.0014,0.001,0.0007,0.0057,0.0058,0.0059,0,-0.0012,-0.0001,0.0027,0.0068,0.0119,0.0137,0.0182,0.0166,0.0096,0.0108,0.0021,-0.0021,-0.0023,-0.0031,-0.0032,-0.0036,0,0,0,-0.0032,-0.0019,-0.0004,0.0055,0.0126,0.0177,0.0195,0.0208,0.0124,0.0143,0.0089,0.0081,-0.0007,-0.0082,-0.0101,-0.0102,-0.0113,0,0]}]]